Hourly Weather Ruchenka

Today, 6 May, Thursday

Time Temperature Precipitation Wind Pressure Humidity
00:00 +4°C° 0.1 mm 6 mps 737 mmHg 86%
01:00 +4°C° 0.1 mm 7 mps 737 mmHg 85%
02:00 +3°C° 0 mm 7 mps 737 mmHg 85%
03:00 +3°C° 0 mm 7 mps 738 mmHg 85%
04:00 +1°C° 0 mm 8 mps 738 mmHg 85%
05:00 +2°C° 0 mm 8 mps 739 mmHg 82%
06:00 +2°C° 0 mm 8 mps 739 mmHg 78%
07:00 +3°C° 0 mm 9 mps 740 mmHg 74%
08:00 +5°C° 0 mm 9 mps 740 mmHg 66%
09:00 +6°C° 0 mm 9 mps 740 mmHg 59%
10:00 +7°C° 0 mm 10 mps 741 mmHg 51%
11:00 +8°C° 0 mm 10 mps 741 mmHg 49%
12:00 +8°C° 0 mm 10 mps 741 mmHg 47%
13:00 +9°C° 0 mm 10 mps 741 mmHg 44%
14:00 +10°C° 0 mm 9 mps 741 mmHg 47%
15:00 +10°C° 0 mm 8 mps 741 mmHg 49%
16:00 +10°C° 0 mm 7 mps 741 mmHg 51%
17:00 +8°C° 0 mm 6 mps 742 mmHg 56%
18:00 +7°C° 0 mm 4 mps 742 mmHg 61%
19:00 +5°C° 0 mm 3 mps 742 mmHg 66%
20:00 +5°C° 0 mm 3 mps 742 mmHg 70%
21:00 +4°C° 0 mm 3 mps 742 mmHg 74%
22:00 +3°C° 0 mm 3 mps 742 mmHg 77%
23:00 +3°C° 0 mm 3 mps 742 mmHg 79%

Tomorrow, 7 May, Friday

Time Temperature Precipitation Wind Pressure Humidity
00:00 +3°C° 0 mm 3 mps 742 mmHg 81%
01:00 +3°C° 0 mm 3 mps 742 mmHg 82%
02:00 +3°C° 0 mm 3 mps 741 mmHg 84%
03:00 +4°C° 0 mm 3 mps 741 mmHg 86%
04:00 +4°C° 0 mm 4 mps 741 mmHg 88%
05:00 +5°C° 0.5 mm 3 mps 740 mmHg 89%
06:00 +5°C° 0.5 mm 3 mps 740 mmHg 90%
07:00 +7°C° 0.5 mm 3 mps 740 mmHg 92%
08:00 +6°C° 0.3 mm 4 mps 739 mmHg 91%
09:00 +6°C° 0.3 mm 4 mps 739 mmHg 91%
10:00 +6°C° 0.3 mm 5 mps 738 mmHg 90%
11:00 +7°C° 0.3 mm 5 mps 738 mmHg 89%
12:00 +8°C° 0.3 mm 6 mps 737 mmHg 88%
13:00 +9°C° 0.3 mm 7 mps 737 mmHg 86%
14:00 +9°C° 0.2 mm 7 mps 737 mmHg 84%
15:00 +9°C° 0.2 mm 7 mps 737 mmHg 82%
16:00 +9°C° 0.2 mm 7 mps 737 mmHg 80%
17:00 +8°C° 0.1 mm 7 mps 738 mmHg 80%
18:00 +5°C° 0.1 mm 7 mps 738 mmHg 81%
19:00 +4°C° 0.1 mm 8 mps 738 mmHg 81%
20:00 +2°C° 0 mm 8 mps 739 mmHg 85%
21:00 +1°C° 0 mm 8 mps 739 mmHg 89%
22:00 0°C° 0 mm 9 mps 740 mmHg 93%
23:00 0°C° 0 mm 9 mps 740 mmHg 91%

Day after tomorrow, 8 May, Saturday

Time Temperature Precipitation Wind Pressure Humidity
00:00 0°C° 0 mm 8 mps 741 mmHg 88%
01:00 0°C° 0 mm 8 mps 742 mmHg 86%
02:00 0°C° 0 mm 8 mps 742 mmHg 86%
03:00 0°C° 0 mm 7 mps 742 mmHg 86%
04:00 0°C° 0 mm 7 mps 743 mmHg 85%
05:00 0°C° 0 mm 7 mps 744 mmHg 83%
06:00 +2°C° 0 mm 7 mps 744 mmHg 81%
07:00 +2°C° 0 mm 7 mps 745 mmHg 79%
08:00 +4°C° 0 mm 7 mps 746 mmHg 72%
09:00 +5°C° 0 mm 7 mps 746 mmHg 65%
10:00 +7°C° 0 mm 8 mps 747 mmHg 58%
11:00 +7°C° 0.2 mm 8 mps 747 mmHg 58%
12:00 +9°C° 0.2 mm 8 mps 748 mmHg 59%
13:00 +9°C° 0.2 mm 8 mps 748 mmHg 60%
14:00 +9°C° 0.1 mm 7 mps 748 mmHg 60%
15:00 +9°C° 0.1 mm 7 mps 749 mmHg 60%
16:00 +9°C° 0.1 mm 6 mps 749 mmHg 59%
17:00 +8°C° 0 mm 5 mps 749 mmHg 65%
18:00 +8°C° 0 mm 3 mps 749 mmHg 70%
19:00 +6°C° 0 mm 2 mps 749 mmHg 76%
20:00 +6°C° 0 mm 2 mps 750 mmHg 76%
21:00 +5°C° 0 mm 2 mps 750 mmHg 77%
22:00 +3°C° 0 mm 3 mps 750 mmHg 78%
23:00 +3°C° 0 mm 3 mps 750 mmHg 78%

9 May, Sunday

Time Temperature Precipitation Wind Pressure Humidity
00:00 +3°C° 0 mm 3 mps 750 mmHg 78%
01:00 +3°C° 0 mm 3 mps 750 mmHg 78%
02:00 +3°C° 0 mm 3 mps 750 mmHg 79%
03:00 +1°C° 0 mm 4 mps 750 mmHg 80%
04:00 +1°C° 0 mm 4 mps 749 mmHg 81%
05:00 +3°C° 0 mm 5 mps 749 mmHg 77%
06:00 +6°C° 0 mm 5 mps 749 mmHg 72%
07:00 +8°C° 0 mm 6 mps 749 mmHg 68%
08:00 +9°C° 0 mm 6 mps 749 mmHg 64%
09:00 +11°C° 0 mm 6 mps 748 mmHg 60%
10:00 +14°C° 0 mm 6 mps 748 mmHg 56%
11:00 +15°C° 0 mm 6 mps 748 mmHg 56%
12:00 +16°C° 0 mm 7 mps 748 mmHg 56%
13:00 +17°C° 0 mm 7 mps 748 mmHg 56%
14:00 +17°C° 0 mm 6 mps 747 mmHg 59%
15:00 +17°C° 0 mm 6 mps 747 mmHg 62%
16:00 +19°C° 0 mm 5 mps 747 mmHg 65%
17:00 +16°C° 0 mm 5 mps 747 mmHg 71%
18:00 +15°C° 0 mm 4 mps 747 mmHg 77%
19:00 +13°C° 0 mm 4 mps 747 mmHg 83%
20:00 +12°C° 0 mm 4 mps 747 mmHg 83%
21:00 +12°C° 0 mm 4 mps 747 mmHg 84%
22:00 +11°C° 0 mm 4 mps 747 mmHg 84%
23:00 +11°C° 0 mm 4 mps 747 mmHg 86%

10 May, Monday

Time Temperature Precipitation Wind Pressure Humidity
00:00 +10°C° 0 mm 4 mps 747 mmHg 87%
01:00 +8°C° 0 mm 4 mps 747 mmHg 89%
02:00 +8°C° 0 mm 4 mps 747 mmHg 87%
03:00 +7°C° 0 mm 4 mps 747 mmHg 86%
04:00 +7°C° 0 mm 4 mps 746 mmHg 84%
05:00 +9°C° 0 mm 5 mps 746 mmHg 79%
06:00 +11°C° 0 mm 6 mps 746 mmHg 75%
07:00 +14°C° 0 mm 7 mps 746 mmHg 70%
08:00 +16°C° 0 mm 7 mps 746 mmHg 67%
09:00 +17°C° 0 mm 8 mps 745 mmHg 64%
10:00 +20°C° 0 mm 8 mps 745 mmHg 62%
11:00 +21°C° 0 mm 8 mps 745 mmHg 62%
12:00 +22°C° 0 mm 8 mps 745 mmHg 62%
13:00 +23°C° 0 mm 8 mps 744 mmHg 62%
14:00 +23°C° 0 mm 8 mps 744 mmHg 63%
15:00 +23°C° 0 mm 7 mps 744 mmHg 65%
16:00 +23°C° 0 mm 7 mps 744 mmHg 67%
17:00 +22°C° 0 mm 7 mps 744 mmHg 71%
18:00 +20°C° 0 mm 6 mps 744 mmHg 75%
19:00 +19°C° 0 mm 5 mps 744 mmHg 79%
20:00 +17°C° 0 mm 5 mps 744 mmHg 82%
21:00 +16°C° 0 mm 5 mps 744 mmHg 84%
22:00 +15°C° 0 mm 5 mps 744 mmHg 87%
23:00 +15°C° 0 mm 5 mps 744 mmHg 89%

11 May, Tuesday

Time Temperature Precipitation Wind Pressure Humidity
00:00 +14°C° 0 mm 5 mps 744 mmHg 91%
01:00 +14°C° 0 mm 5 mps 744 mmHg 94%
02:00 +13°C° 0 mm 5 mps 744 mmHg 94%
03:00 +13°C° 0 mm 5 mps 744 mmHg 95%
04:00 +13°C° 0 mm 4 mps 744 mmHg 95%
05:00 +14°C° 0 mm 5 mps 744 mmHg 90%
06:00 +16°C° 0 mm 5 mps 744 mmHg 85%
07:00 +17°C° 0 mm 6 mps 744 mmHg 79%
08:00 +19°C° 0 mm 6 mps 744 mmHg 74%
09:00 +21°C° 0 mm 7 mps 744 mmHg 69%
10:00 +22°C° 0 mm 8 mps 744 mmHg 63%
11:00 +23°C° 0 mm 8 mps 744 mmHg 62%
12:00 +24°C° 0 mm 8 mps 744 mmHg 61%
13:00 +26°C° 0 mm 7 mps 744 mmHg 60%
14:00 +26°C° 0 mm 7 mps 744 mmHg 62%
15:00 +26°C° 0 mm 7 mps 744 mmHg 63%
16:00 +26°C° 0 mm 7 mps 744 mmHg 65%
17:00 +23°C° 0 mm 7 mps 744 mmHg 70%
18:00 +22°C° 0 mm 6 mps 744 mmHg 74%
19:00 +20°C° 0 mm 6 mps 744 mmHg 79%
20:00 +19°C° 0 mm 6 mps 745 mmHg 80%
21:00 +17°C° 0 mm 6 mps 745 mmHg 80%
22:00 +16°C° 0 mm 5 mps 745 mmHg 81%
23:00 +15°C° 0 mm 5 mps 745 mmHg 83%
Show more